Appleton, MN

1:10 AM CST on November 15, 2019 (GMT -0600)
Appleton Municipal

Weather History for KAQP - August, 2019

Change the Weather History Date:

Wednesday, August 14, 2019

  Actual Average Record
Temperature  
Mean Temperature 68 °F -  
Max Temperature 75 °F 77 °F 93 °F (2015)
Min Temperature 62 °F 55 °F 39 °F (2004)
Cooling Degree Days 4    
Growing Degree Days 18 (Base 50)    
Moisture  
Dew Point 58 °F    
Average Humidity 71    
Maximum Humidity 88    
Minimum Humidity 38    
Precipitation  
Precipitation 0.00 in - - ()
Sea Level Pressure  
Sea Level Pressure 30.07 in    
Wind  
Wind Speed 5 mph (NNW)    
Max Wind Speed 8 mph    
Max Gust Speed -    
Visibility 10 miles    
Events      
Averages and records for this station are not official NWS values.
T = Trace of Precipitation, MM = Missing Value Source: NWS Daily Summary

Daily Weather History Graph

Daily Weather History Graph

Search for Another Location

Airport or City:

Astronomy

Aug. 14, 2019 Rise Set
Actual Time 6:23 AM CDT 8:32 PM CDT
Civil Twilight 5:51 AM CDT 9:04 PM CDT
Nautical Twilight 5:11 AM CDT 9:44 PM CDT
Astronomical Twilight 4:27 AM CDT 10:28 PM CDT
Moon 8:30 PM CDT (8/14) 5:17 AM CDT (8/14)
Length of Visible Light 15h 13m
Length of Day
14h 08m
Waxing Gibbous, 99% of the Moon is Illuminated
Aug 14
Waxing Gibbous
Aug 15
Full
Aug 23
Last Quarter
Aug 30
New
Sep 5
First Quarter

Hourly Weather History & Observations

Time (CDT) Temp. Dew Point Humidity Pressure Visibility Wind Dir Wind Speed Gust Speed Precip Events Conditions
12:11 AM 64.4 °F 60.8 °F 88% 30.03 in 10.0 mi WNW 8.1 mph - N/A   Overcast
12:33 AM 64.4 °F 60.8 °F 88% 30.04 in 7.0 mi WNW 8.1 mph - N/A   Overcast
12:51 AM 64.4 °F 60.8 °F 88% 30.04 in 10.0 mi WNW 8.1 mph - N/A   Overcast
1:11 AM 64.4 °F 60.8 °F 88% 30.04 in 10.0 mi WNW 5.8 mph - N/A   Overcast
1:31 AM 64.4 °F 60.8 °F 88% 30.04 in 10.0 mi NW 4.6 mph - N/A   Overcast
1:51 AM 64.4 °F 60.8 °F 88% 30.04 in 10.0 mi NW 6.9 mph - N/A   Overcast
2:11 AM 64.4 °F 60.8 °F 88% 30.03 in 10.0 mi WNW 5.8 mph - N/A   Overcast
2:31 AM 64.4 °F 60.8 °F 88% 30.03 in 10.0 mi WNW 4.6 mph - N/A   Overcast
2:51 AM 64.4 °F 60.8 °F 88% 30.03 in 10.0 mi Calm Calm - N/A   Overcast
3:11 AM 64.4 °F 60.8 °F 88% 30.03 in 10.0 mi North 6.9 mph - N/A   Overcast
3:31 AM 64.4 °F 60.8 °F 88% 30.04 in 10.0 mi North 5.8 mph - N/A   Overcast
3:51 AM 64.4 °F 60.8 °F 88% 30.04 in 10.0 mi North 4.6 mph - N/A   Overcast
4:10 AM 64.4 °F 60.8 °F 88% 30.04 in 10.0 mi North 4.6 mph - N/A   Overcast
4:51 AM 64.4 °F 60.8 °F 88% 30.05 in 10.0 mi North 5.8 mph - N/A   Overcast
5:11 AM 64.4 °F 60.8 °F 88% 30.06 in 10.0 mi North 8.1 mph - N/A   Overcast
5:30 AM 64.4 °F 60.8 °F 88% 30.06 in 10.0 mi North 6.9 mph - N/A   Overcast
5:50 AM 64.4 °F 60.8 °F 88% 30.07 in 10.0 mi North 5.8 mph - N/A   Overcast
6:11 AM 64.4 °F 60.8 °F 88% 30.07 in 10.0 mi North 5.8 mph - N/A   Overcast
6:32 AM 64.4 °F 60.8 °F 88% 30.07 in 10.0 mi North 5.8 mph - N/A   Overcast
6:51 AM 64.4 °F 60.8 °F 88% 30.08 in 10.0 mi North 5.8 mph - N/A   Overcast
7:11 AM 64.4 °F 60.8 °F 88% 30.08 in 10.0 mi North 4.6 mph - N/A   Overcast
7:31 AM 64.4 °F 60.8 °F 88% 30.09 in 10.0 mi NNW 3.5 mph - N/A   Scattered Clouds
7:52 AM 62.6 °F 59.0 °F 88% 30.09 in 10.0 mi North 5.8 mph - N/A   Clear
8:11 AM 64.4 °F 59.0 °F 83% 30.09 in 10.0 mi North 4.6 mph - N/A   Scattered Clouds
8:34 AM 64.4 °F 57.2 °F 77% 30.10 in 10.0 mi North 4.6 mph - N/A   Scattered Clouds
8:51 AM 64.4 °F 57.2 °F 77% 30.09 in 10.0 mi North 5.8 mph - N/A   Scattered Clouds
9:12 AM 64.4 °F 57.2 °F 77% 30.10 in 10.0 mi NNE 4.6 mph - N/A   Scattered Clouds
9:31 AM 66.2 °F 57.2 °F 73% 30.10 in 10.0 mi NNE 3.5 mph - N/A   Mostly Cloudy
9:51 AM 66.2 °F 57.2 °F 73% 30.10 in 10.0 mi NNW 5.8 mph - N/A   Mostly Cloudy
10:10 AM 66.2 °F 57.2 °F 73% 30.11 in 10.0 mi Calm Calm - N/A   Mostly Cloudy
10:32 AM 69.8 °F 57.2 °F 64% 30.11 in 10.0 mi NNE 4.6 mph - N/A   Scattered Clouds
10:54 AM 69.8 °F 57.2 °F 64% 30.12 in 10.0 mi North 3.5 mph - N/A   Mostly Cloudy
11:11 AM 69.8 °F 55.4 °F 60% 30.12 in 10.0 mi Calm Calm - N/A   Mostly Cloudy
11:31 AM 69.8 °F 57.2 °F 64% 30.12 in 10.0 mi NW 3.5 mph - N/A   Mostly Cloudy
11:53 AM 71.6 °F 57.2 °F 60% 30.12 in 10.0 mi NNE 3.5 mph - N/A   Mostly Cloudy
12:11 PM 69.8 °F 57.2 °F 64% 30.11 in 10.0 mi NW 4.6 mph - N/A   Mostly Cloudy
12:31 PM 71.6 °F 57.2 °F 60% 30.11 in 10.0 mi NW 5.8 mph - N/A   Mostly Cloudy
1:10 PM 71.6 °F 55.4 °F 57% 30.11 in 10.0 mi North 3.5 mph - N/A   Scattered Clouds
1:35 PM 73.4 °F 55.4 °F 53% 30.10 in 10.0 mi Calm Calm - N/A   Scattered Clouds
1:50 PM 71.6 °F 55.4 °F 57% 30.09 in 10.0 mi NNW 5.8 mph - N/A   Scattered Clouds
2:13 PM 73.4 °F 53.6 °F 50% 30.09 in 10.0 mi NW 5.8 mph - N/A   Clear
2:31 PM 73.4 °F 53.6 °F 50% 30.09 in 10.0 mi NE 5.8 mph - N/A   Scattered Clouds
2:51 PM 75.2 °F 53.6 °F 47% 30.09 in 10.0 mi Calm Calm - N/A   Scattered Clouds
3:12 PM 73.4 °F 53.6 °F 50% 30.08 in 10.0 mi Calm Calm - N/A   Clear
3:31 PM 75.2 °F 51.8 °F 44% 30.07 in 10.0 mi NE 3.5 mph - N/A   Clear
3:51 PM 75.2 °F 53.6 °F 47% 30.07 in 10.0 mi Calm Calm - N/A   Scattered Clouds
4:14 PM 75.2 °F 51.8 °F 44% 30.06 in 10.0 mi Calm Calm - N/A   Scattered Clouds
5:10 PM 75.2 °F 53.6 °F 47% 30.06 in 10.0 mi Calm Calm - N/A   Scattered Clouds
5:35 PM 75.2 °F 48.2 °F 38% 30.06 in 10.0 mi Calm Calm - N/A   Scattered Clouds
5:51 PM 75.2 °F 53.6 °F 47% 30.06 in 10.0 mi North 4.6 mph - N/A   Clear
6:11 PM 75.2 °F 51.8 °F 44% 30.05 in 10.0 mi Calm Calm - N/A   Clear
6:32 PM 75.2 °F 51.8 °F 44% 30.05 in 10.0 mi Calm Calm - N/A   Clear
6:51 PM 73.4 °F 51.8 °F 47% 30.05 in 10.0 mi Calm Calm - N/A   Clear
7:11 PM 73.4 °F 53.6 °F 50% 30.05 in 10.0 mi Calm Calm - N/A   Clear
7:32 PM 73.4 °F 55.4 °F 53% 30.05 in 10.0 mi Calm Calm - N/A   Mostly Cloudy
7:51 PM 73.4 °F 57.2 °F 57% 30.05 in 10.0 mi Calm Calm - N/A   Overcast
8:10 PM 71.6 °F 57.2 °F 60% 30.05 in 10.0 mi Calm Calm - N/A   Overcast
8:33 PM 71.6 °F 59.0 °F 64% 30.05 in 10.0 mi Calm Calm - N/A   Overcast
8:51 PM 69.8 °F 60.8 °F 73% 30.05 in 10.0 mi Calm Calm - N/A   Overcast
9:10 PM 68.0 °F 60.8 °F 78% 30.05 in 10.0 mi Calm Calm - N/A   Overcast
9:32 PM 69.8 °F 60.8 °F 73% 30.06 in 10.0 mi Calm Calm - N/A   Overcast
9:53 PM 69.8 °F 59.0 °F 68% 30.07 in 10.0 mi Calm Calm - N/A   Overcast
10:11 PM 68.0 °F 60.8 °F 78% 30.07 in 10.0 mi Calm Calm - N/A   Overcast
10:31 PM 66.2 °F 62.6 °F 88% 30.07 in 10.0 mi Calm Calm - N/A   Overcast
10:51 PM 68.0 °F 60.8 °F 78% 30.07 in 10.0 mi Calm Calm - N/A   Overcast
11:11 PM 66.2 °F 60.8 °F 83% 30.07 in 10.0 mi Calm Calm - N/A   Overcast
11:30 PM 66.2 °F 59.0 °F 78% 30.07 in 10.0 mi Calm Calm - N/A   Overcast
11:52 PM 64.4 °F 60.8 °F 88% 30.06 in 10.0 mi Calm Calm - N/A   Overcast